Time,TemperatureF,DewpointF,PressureIn,WindDirection,WindDirectionDegrees,WindSpeedMPH,WindSpeedGustMPH,Humidity,HourlyPrecipIn,Conditions,Clouds,dailyrainin,SoftwareType,DateUTC
2013-01-04 00:03:00,16.4,11.0,30.13,SW,228,10.0,-999.0,80,-99.99,,,0.00,weatherlink.com 1.10,2013-01-04 06:03:00,
2013-01-04 00:18:00,16.5,10.0,30.12,SW,231,7.0,-999.0,76,-99.99,,,0.00,weatherlink.com 1.10,2013-01-04 06:18:00,
2013-01-04 00:33:00,16.9,11.0,30.12,SW,224,5.0,-999.0,79,-99.99,,,0.00,weatherlink.com 1.10,2013-01-04 06:33:00,
2013-01-04 00:48:00,17.5,12.0,30.10,South,188,4.0,-999.0,78,-99.99,,,0.00,weatherlink.com 1.10,2013-01-04 06:48:00,
2013-01-04 01:03:00,17.2,11.0,30.09,SW,229,11.0,-999.0,78,-99.99,,,0.00,weatherlink.com 1.10,2013-01-04 07:03:00,
2013-01-04 01:18:00,17.0,11.0,30.08,SSW,212,9.0,-999.0,78,-99.99,,,0.00,weatherlink.com 1.10,2013-01-04 07:18:00,
2013-01-04 01:33:00,17.3,12.0,30.08,SSW,201,6.0,-999.0,78,-99.99,,,0.00,weatherlink.com 1.10,2013-01-04 07:33:00,
2013-01-04 01:48:00,17.7,12.0,30.09,SW,217,3.0,-999.0,78,-99.99,,,0.00,weatherlink.com 1.10,2013-01-04 07:48:00,
2013-01-04 02:03:00,17.7,12.0,30.09,SW,214,12.0,-999.0,77,-99.99,,,0.00,weatherlink.com 1.10,2013-01-04 08:03:00,
2013-01-04 02:18:00,17.5,11.0,30.08,SW,229,7.0,-999.0,77,-99.99,,,0.00,weatherlink.com 1.10,2013-01-04 08:18:00,
2013-01-04 02:33:00,17.8,12.0,30.08,WSW,251,5.0,-999.0,77,-99.99,,,0.00,weatherlink.com 1.10,2013-01-04 08:33:00,
2013-01-04 02:48:00,18.6,13.0,30.08,SW,219,4.0,-999.0,77,-99.99,,,0.00,weatherlink.com 1.10,2013-01-04 08:48:00,
2013-01-04 03:03:00,19.4,13.0,30.07,WSW,255,8.0,-999.0,75,-99.99,,,0.00,weatherlink.com 1.10,2013-01-04 09:03:00,
2013-01-04 03:18:00,19.2,13.0,30.07,SW,221,9.0,-999.0,75,-99.99,,,0.00,weatherlink.com 1.10,2013-01-04 09:18:00,
2013-01-04 03:33:00,19.4,13.0,30.06,SSW,210,10.0,-999.0,75,-99.99,,,0.00,weatherlink.com 1.10,2013-01-04 09:33:00,
2013-01-04 03:48:00,19.5,13.0,30.05,SW,230,5.0,-999.0,75,-99.99,,,0.00,weatherlink.com 1.10,2013-01-04 09:48:00,
2013-01-04 04:03:00,20.0,13.0,30.04,SW,220,5.0,-999.0,74,-99.99,,,0.00,weatherlink.com 1.10,2013-01-04 10:03:00,
2013-01-04 04:18:00,20.2,13.0,30.04,SW,219,7.0,-999.0,74,-99.99,,,0.00,weatherlink.com 1.10,2013-01-04 10:18:00,
2013-01-04 04:33:00,20.5,13.0,30.03,SW,227,10.0,-999.0,73,-99.99,,,0.00,weatherlink.com 1.10,2013-01-04 10:33:00,
2013-01-04 04:48:00,20.0,13.0,30.05,WSW,238,6.0,-999.0,73,-99.99,,,0.00,weatherlink.com 1.10,2013-01-04 10:48:00,
2013-01-04 05:03:00,19.5,12.0,30.05,SW,224,4.0,-999.0,74,-99.99,,,0.00,weatherlink.com 1.10,2013-01-04 11:03:00,
2013-01-04 05:18:00,19.4,12.0,30.05,SW,221,5.0,-999.0,74,-99.99,,,0.00,weatherlink.com 1.10,2013-01-04 11:18:00,
2013-01-04 05:33:00,19.2,12.0,30.05,SW,227,6.0,-999.0,74,-99.99,,,0.00,weatherlink.com 1.10,2013-01-04 11:33:00,
2013-01-04 05:48:00,19.2,12.0,30.06,WSW,243,3.0,-999.0,74,-99.99,,,0.00,weatherlink.com 1.10,2013-01-04 11:48:00,
2013-01-04 06:03:00,19.1,12.0,30.06,SW,221,7.0,-999.0,74,-99.99,,,0.00,weatherlink.com 1.10,2013-01-04 12:03:00,
2013-01-04 06:18:00,19.2,12.0,30.07,SW,236,4.0,-999.0,74,-99.99,,,0.00,weatherlink.com 1.10,2013-01-04 12:18:00,
2013-01-04 06:33:00,18.9,12.0,30.07,SW,219,1.0,-999.0,74,-99.99,,,0.00,weatherlink.com 1.10,2013-01-04 12:33:00,
2013-01-04 06:48:00,18.9,12.0,30.07,WSW,247,3.0,-999.0,74,-99.99,,,0.00,weatherlink.com 1.10,2013-01-04 12:48:00,
2013-01-04 07:03:00,18.8,12.0,30.07,SSW,207,5.0,-999.0,74,-99.99,,,0.00,weatherlink.com 1.10,2013-01-04 13:03:00,
2013-01-04 07:18:00,18.6,12.0,30.08,SSW,205,3.0,-999.0,74,-99.99,,,0.00,weatherlink.com 1.10,2013-01-04 13:18:00,
2013-01-04 07:33:00,18.4,12.0,30.07,SW,215,3.0,-999.0,75,-99.99,,,0.00,weatherlink.com 1.10,2013-01-04 13:33:00,
2013-01-04 07:48:00,18.8,12.0,30.08,SW,219,5.0,-999.0,74,-99.99,,,0.00,weatherlink.com 1.10,2013-01-04 13:48:00,
2013-01-04 08:03:00,19.1,12.0,30.07,WSW,246,9.0,-999.0,74,-99.99,,,0.00,weatherlink.com 1.10,2013-01-04 14:03:00,
2013-01-04 08:18:00,19.2,12.0,30.07,WSW,242,5.0,-999.0,73,-99.99,,,0.00,weatherlink.com 1.10,2013-01-04 14:18:00,
2013-01-04 08:33:00,19.4,12.0,30.08,SW,233,3.0,-999.0,72,-99.99,,,0.00,weatherlink.com 1.10,2013-01-04 14:33:00,
2013-01-04 08:48:00,19.7,12.0,30.09,WSW,250,5.0,-999.0,72,-99.99,,,0.00,weatherlink.com 1.10,2013-01-04 14:48:00,
2013-01-04 09:03:00,20.0,12.0,30.09,SW,236,3.0,-999.0,71,-99.99,,,0.00,weatherlink.com 1.10,2013-01-04 15:03:00,
2013-01-04 09:18:00,20.3,12.0,30.09,SW,226,5.0,-999.0,70,-99.99,,,0.00,weatherlink.com 1.10,2013-01-04 15:18:00,
2013-01-04 09:33:00,21.0,12.0,30.10,SW,217,1.0,-999.0,69,-99.99,,,0.00,weatherlink.com 1.10,2013-01-04 15:33:00,
2013-01-04 09:48:00,21.6,12.0,30.11,WSW,250,4.0,-999.0,67,-99.99,,,0.00,weatherlink.com 1.10,2013-01-04 15:48:00,
2013-01-04 10:03:00,21.8,12.0,30.11,West,263,4.0,-999.0,66,-99.99,,,0.00,weatherlink.com 1.10,2013-01-04 16:03:00,
2013-01-04 10:18:00,22.2,12.0,30.12,West,262,3.0,-999.0,65,-99.99,,,0.00,weatherlink.com 1.10,2013-01-04 16:18:00,
2013-01-04 10:33:00,22.7,13.0,30.12,WSW,254,5.0,-999.0,65,-99.99,,,0.00,weatherlink.com 1.10,2013-01-04 16:33:00,
2013-01-04 10:48:00,23.3,13.0,30.12,West,264,3.0,-999.0,64,-99.99,,,0.00,weatherlink.com 1.10,2013-01-04 16:48:00,
2013-01-04 11:03:00,23.8,12.0,30.12,NW,304,2.0,-999.0,62,-99.99,,,0.00,weatherlink.com 1.10,2013-01-04 17:03:00,
2013-01-04 11:18:00,24.4,13.0,30.12,NW,316,5.0,-999.0,62,-99.99,,,0.00,weatherlink.com 1.10,2013-01-04 17:18:00,
2013-01-04 11:33:00,24.8,13.0,30.12,WSW,255,2.0,-999.0,62,-99.99,,,0.00,weatherlink.com 1.10,2013-01-04 17:33:00,
2013-01-04 11:48:00,25.0,13.0,30.12,WNW,283,6.0,-999.0,61,-99.99,,,0.00,weatherlink.com 1.10,2013-01-04 17:48:00,
2013-01-04 12:03:00,25.3,14.0,30.12,WNW,297,5.0,-999.0,62,-99.99,,,0.00,weatherlink.com 1.10,2013-01-04 18:03:00,
2013-01-04 12:18:00,25.4,14.0,30.12,WSW,238,4.0,-999.0,61,-99.99,,,0.00,weatherlink.com 1.10,2013-01-04 18:18:00,
2013-01-04 12:33:00,25.6,14.0,30.12,West,260,6.0,-999.0,62,-99.99,,,0.00,weatherlink.com 1.10,2013-01-04 18:33:00,
2013-01-04 12:48:00,26.0,14.0,30.11,West,275,9.0,-999.0,61,-99.99,,,0.00,weatherlink.com 1.10,2013-01-04 18:48:00,
2013-01-04 13:03:00,26.4,14.0,30.10,SW,226,3.0,-999.0,61,-99.99,,,0.00,weatherlink.com 1.10,2013-01-04 19:03:00,
2013-01-04 13:18:00,26.7,15.0,30.10,SW,221,1.0,-999.0,61,-99.99,,,0.00,weatherlink.com 1.10,2013-01-04 19:18:00,
2013-01-04 13:33:00,26.6,14.0,30.10,SW,220,1.0,-999.0,60,-99.99,,,0.00,weatherlink.com 1.10,2013-01-04 19:33:00,
2013-01-04 13:48:00,26.7,14.0,30.10,WSW,251,4.0,-999.0,60,-99.99,,,0.00,weatherlink.com 1.10,2013-01-04 19:48:00,
2013-01-04 14:03:00,26.9,15.0,30.10,WSW,257,3.0,-999.0,60,-99.99,,,0.00,weatherlink.com 1.10,2013-01-04 20:03:00,
2013-01-04 14:20:00,26.9,15.0,30.10,West,260,3.0,-999.0,60,-99.99,,,0.00,weatherlink.com 1.10,2013-01-04 20:20:00,
2013-01-04 14:35:00,26.9,15.0,30.10,West,277,4.0,-999.0,61,-99.99,,,0.00,weatherlink.com 1.10,2013-01-04 20:35:00,
2013-01-04 14:50:00,27.0,15.0,30.11,WSW,252,3.0,-999.0,60,-99.99,,,0.00,weatherlink.com 1.10,2013-01-04 20:50:00,
2013-01-04 15:05:00,26.7,15.0,30.11,WSW,250,3.0,-999.0,62,-99.99,,,0.00,weatherlink.com 1.10,2013-01-04 21:05:00,
2013-01-04 15:20:00,26.3,15.0,30.11,WSW,258,4.0,-999.0,62,-99.99,,,0.00,weatherlink.com 1.10,2013-01-04 21:20:00,
2013-01-04 15:35:00,26.0,14.0,30.12,West,276,5.0,-999.0,62,-99.99,,,0.00,weatherlink.com 1.10,2013-01-04 21:35:00,
2013-01-04 15:50:00,25.8,15.0,30.13,West,269,7.0,-999.0,63,-99.99,,,0.00,weatherlink.com 1.10,2013-01-04 21:50:00,
2013-01-04 16:05:00,25.6,14.0,30.13,WSW,257,3.0,-999.0,63,-99.99,,,0.00,weatherlink.com 1.10,2013-01-04 22:05:00,
2013-01-04 16:20:00,25.4,15.0,30.13,West,273,1.0,-999.0,64,-99.99,,,0.00,weatherlink.com 1.10,2013-01-04 22:20:00,
2013-01-04 16:35:00,24.8,15.0,30.14,West,271,2.0,-999.0,65,-99.99,,,0.00,weatherlink.com 1.10,2013-01-04 22:35:00,
2013-01-04 16:50:00,24.1,14.0,30.14,West,269,3.0,-999.0,66,-99.99,,,0.00,weatherlink.com 1.10,2013-01-04 22:50:00,
2013-01-04 17:05:00,23.8,14.0,30.14,WSW,255,0.0,-999.0,67,-99.99,,,0.00,weatherlink.com 1.10,2013-01-04 23:05:00,
2013-01-04 17:20:00,23.3,14.0,30.14,WSW,255,0.0,-999.0,68,-99.99,,,0.00,weatherlink.com 1.10,2013-01-04 23:20:00,
2013-01-04 17:35:00,22.7,14.0,30.14,WSW,255,1.0,-999.0,69,-99.99,,,0.00,weatherlink.com 1.10,2013-01-04 23:35:00,
2013-01-04 17:50:00,21.4,13.0,30.14,WSW,255,0.0,-999.0,71,-99.99,,,0.00,weatherlink.com 1.10,2013-01-04 23:50:00,
2013-01-04 18:05:00,20.8,13.0,30.14,WSW,255,1.0,-999.0,73,-99.99,,,0.00,weatherlink.com 1.10,2013-01-05 00:05:00,
2013-01-04 18:20:00,21.3,14.0,30.15,WSW,255,1.0,-999.0,73,-99.99,,,0.00,weatherlink.com 1.10,2013-01-05 00:20:00,
2013-01-04 18:35:00,21.1,14.0,30.15,WSW,255,0.0,-999.0,73,-99.99,,,0.00,weatherlink.com 1.10,2013-01-05 00:35:00,
2013-01-04 18:50:00,21.0,14.0,30.14,WSW,255,0.0,-999.0,73,-99.99,,,0.00,weatherlink.com 1.10,2013-01-05 00:50:00,
2013-01-04 19:05:00,20.3,13.0,30.14,WSW,255,0.0,-999.0,74,-99.99,,,0.00,weatherlink.com 1.10,2013-01-05 01:05:00,
2013-01-04 19:20:00,20.6,14.0,30.14,WSW,255,1.0,-999.0,74,-99.99,,,0.00,weatherlink.com 1.10,2013-01-05 01:20:00,
2013-01-04 19:35:00,20.2,13.0,30.14,WSW,255,0.0,-999.0,74,-99.99,,,0.00,weatherlink.com 1.10,2013-01-05 01:35:00,
2013-01-04 19:50:00,20.5,14.0,30.15,WSW,255,1.0,-999.0,75,-99.99,,,0.00,weatherlink.com 1.10,2013-01-05 01:50:00,
2013-01-04 20:05:00,20.0,13.0,30.14,WSW,255,1.0,-999.0,74,-99.99,,,0.00,weatherlink.com 1.10,2013-01-05 02:05:00,
2013-01-04 20:20:00,19.9,13.0,30.14,SW,231,1.0,-999.0,75,-99.99,,,0.00,weatherlink.com 1.10,2013-01-05 02:20:00,
2013-01-04 20:35:00,19.7,13.0,30.15,SW,231,1.0,-999.0,75,-99.99,,,0.00,weatherlink.com 1.10,2013-01-05 02:35:00,
2013-01-04 20:50:00,18.6,12.0,30.15,SW,231,1.0,-999.0,76,-99.99,,,0.00,weatherlink.com 1.10,2013-01-05 02:50:00,
2013-01-04 21:05:00,18.9,13.0,30.14,SW,231,2.0,-999.0,76,-99.99,,,0.00,weatherlink.com 1.10,2013-01-05 03:05:00,
2013-01-04 21:20:00,18.3,12.0,30.14,SW,231,2.0,-999.0,77,-99.99,,,0.00,weatherlink.com 1.10,2013-01-05 03:20:00,
2013-01-04 21:35:00,18.0,12.0,30.14,SW,219,2.0,-999.0,78,-99.99,,,0.00,weatherlink.com 1.10,2013-01-05 03:35:00,
2013-01-04 21:50:00,17.7,12.0,30.14,SW,219,2.0,-999.0,79,-99.99,,,0.00,weatherlink.com 1.10,2013-01-05 03:50:00,
2013-01-04 22:05:00,17.3,12.0,30.14,SW,219,2.0,-999.0,80,-99.99,,,0.00,weatherlink.com 1.10,2013-01-05 04:05:00,
2013-01-04 22:20:00,17.3,12.0,30.13,SW,219,0.0,-999.0,80,-99.99,,,0.00,weatherlink.com 1.10,2013-01-05 04:20:00,
2013-01-04 22:35:00,16.7,12.0,30.12,SW,219,0.0,-999.0,81,-99.99,,,0.00,weatherlink.com 1.10,2013-01-05 04:35:00,
2013-01-04 22:50:00,15.4,11.0,30.12,SW,219,0.0,-999.0,81,-99.99,,,0.00,weatherlink.com 1.10,2013-01-05 04:50:00,
2013-01-04 23:05:00,14.9,11.0,30.12,SW,219,0.0,-999.0,83,-99.99,,,0.00,weatherlink.com 1.10,2013-01-05 05:05:00,
2013-01-04 23:20:00,15.1,11.0,30.12,SW,219,0.0,-999.0,84,-99.99,,,0.00,weatherlink.com 1.10,2013-01-05 05:20:00,
2013-01-04 23:35:00,15.1,11.0,30.12,SW,219,0.0,-999.0,84,-99.99,,,0.00,weatherlink.com 1.10,2013-01-05 05:35:00,
2013-01-04 23:50:00,16.4,13.0,30.11,SW,219,1.0,-999.0,86,-99.99,,,0.00,weatherlink.com 1.10,2013-01-05 05:50:00,